[[{"header":{"parameterUnit":"m.s-1","parameterCategory":1,"la1":30.2991,"la2":30.254,"lo1":-89.0895,"lo2":-89.0444,"dy":0.0017,"dx":0.0017,"nx":28,"ny":28,"refTime":"2026-01-09T03:00:00:Z","depth":0,"parameterNumber":2,"parameterNumberName":"U-component_of_WINDS"},"data":[0,0,0,0,0,0,0,0,0,0,0,0,0,0,0,0,0,0,0,0,0,0,0,0,0,0,0,0,0,0,0,0,0,0,0,0,0,0,0,0,0,0,0,0,0,0,0,0,0,0,0,0,0,0,0,0,0,0,1.6032,1.6033,0,1.6049,1.6049,1.6049,1.6029,1.6028,1.6027,1.6026,1.6047,1.6048,1.6049,0,0,0,0,0,0,0,0,0,0,0,0,0,1.5987,1.5988,1.6032,1.6033,1.6033,1.6049,1.6049,1.6049,1.6029,1.6028,1.6027,1.6026,1.6046,1.6048,1.6049,0,0,0,0,0,0,0,0,0,0,0,0,0,1.6006,1.5989,1.6032,1.6024,1.6024,1.6049,1.6049,1.6049,1.6029,1.6028,1.6027,1.6025,1.6046,1.6048,1.605,1.6084,0,0,1.6055,1.6056,0,0,0,0,0,0,0,0,1.6005,1.6007,1.6025,1.6025,1.6024,1.6035,1.6041,1.6061,1.6029,1.6027,1.6026,1.6025,1.6044,1.6046,1.6052,1.6085,1.6086,1.6056,1.6057,1.6058,1.6058,0,0,0,0,0,0,0,1.6004,1.6007,1.6039,1.6026,1.6025,1.6021,1.6023,1.6044,1.6042,1.6027,1.6026,1.6028,1.6044,1.605,1.6052,1.6086,1.6056,1.6057,1.6058,1.6059,1.615,1.6152,0,0,0,0,0,0,1.6003,1.6006,1.6038,1.6039,1.6011,1.6023,1.6025,1.6033,1.6042,1.6042,1.6029,1.6027,1.6047,1.605,1.6053,1.6095,1.6057,1.6059,1.606,1.6149,1.6151,1.6152,0,0,0,0,0,0,1.6002,1.6006,1.6038,1.6022,1.6026,1.6025,1.6035,1.6034,1.604,1.6043,1.6043,1.6035,1.6047,1.605,1.6077,1.6095,1.606,1.6062,1.6148,1.615,1.6151,1.6178,0,0,0,0,0,0,1.6001,1.6006,1.6018,1.6023,1.6027,1.606,1.6036,1.6035,1.6043,1.6041,1.6049,1.6049,1.6046,1.6074,1.6078,1.6097,1.6063,1.6146,1.6148,1.6151,1.6176,1.6181,1.6185,0,0,0,0,0,1.5999,1.6025,1.6018,1.6022,1.6042,1.6061,1.6064,1.6058,1.6045,1.6058,1.6059,1.6049,1.6092,1.6077,1.6082,1.6101,1.6145,1.6148,1.6151,1.6173,1.618,1.6185,0,0,0,0,0,0,1.6024,1.6026,1.6018,1.6046,1.6054,1.6058,1.6074,1.6065,1.6077,1.6075,1.6068,1.6071,1.6099,1.6103,1.6085,1.6136,1.6116,1.612,1.6132,1.6138,1.6143,1.6142,1.6065,0,0,0,0,0,1.6032,1.6046,1.6048,1.6073,1.6077,1.6075,1.6083,1.6078,1.6086,1.6089,1.6093,1.6102,1.6117,1.6128,1.6142,1.6176,1.6178,1.6192,1.6197,1.6201,1.6204,1.6224,1.623,1.6162,1.6162,1.6161,0,0,1.605,1.6053,1.6063,1.6078,1.6083,1.6099,1.6077,1.6095,1.6108,1.6092,1.6117,1.612,1.613,1.616,1.6174,1.6165,1.6224,1.6204,1.6207,1.6209,1.6227,1.6234,1.624,1.6164,1.6163,1.6163,0,0,1.6091,1.6095,1.6116,1.6121,1.6129,1.6127,1.6133,1.6138,1.6139,1.6164,1.6153,1.6168,1.6195,1.6203,1.621,1.6255,1.6247,1.626,1.6286,1.6304,1.631,1.6315,1.6332,1.6338,1.6264,1.6264,1.6264,0,1.6113,1.6136,1.6128,1.6147,1.6155,1.614,1.6163,1.6169,1.6182,1.6188,1.6176,1.621,1.6216,1.6248,1.6259,1.6266,1.6272,1.626,1.6309,1.6314,1.6318,1.6335,1.6341,1.6266,1.6266,1.6265,1.6265,0,1.6163,1.6179,1.6196,1.6207,1.6217,1.6237,1.6234,1.6245,1.6239,1.624,1.6266,1.6272,1.6288,1.6295,1.629,1.6328,1.6321,1.631,1.629,1.6327,1.6342,1.6348,1.6268,1.6268,1.6267,1.6267,0,0,1.622,1.6227,1.6233,1.6239,1.6246,1.6259,1.628,1.6294,1.6304,1.6314,1.6332,1.6355,1.6345,1.6353,1.6349,1.6366,1.6402,1.6352,1.6352,1.6362,1.6445,1.6454,1.6461,1.6396,1.6397,1.6398,1.6444,0,1.6262,1.6296,1.629,1.6324,1.634,1.6327,1.6345,1.6352,1.6353,1.6368,1.637,1.6386,1.6371,1.6376,1.6392,1.6394,1.6419,1.6391,1.6415,1.6415,1.6413,1.6469,1.6478,1.6521,1.645,1.6451,1.6452,0,1.6315,1.6325,1.6361,1.6366,1.6373,1.6389,1.6402,1.6416,1.6425,1.6424,1.6434,1.6428,1.645,1.643,1.6461,1.6442,1.6452,1.6455,1.6456,1.6459,1.6436,1.6473,1.6534,1.6541,1.6461,1.646,1.6459,0,1.6354,1.6377,1.6401,1.6406,1.6413,1.6425,1.6429,1.6437,1.6446,1.6458,1.6465,1.648,1.6488,1.65,1.6499,1.6484,1.6531,1.6511,1.6533,1.6533,1.6544,1.6543,1.6607,1.6549,1.6549,1.6549,1.6548,0,1.6401,1.6424,1.6419,1.6434,1.6459,1.6453,1.6478,1.648,1.6487,1.6504,1.6494,1.651,1.6506,1.6522,1.6521,1.6548,1.6552,1.6553,1.6553,1.6554,1.6554,1.6561,1.6558,1.655,1.655,1.655,1.6549,0,1.6449,1.6446,1.6472,1.6477,1.6479,1.6497,1.6502,1.6517,1.6517,1.6538,1.6543,1.6544,1.6562,1.6562,1.6583,1.6582,1.6616,1.6611,1.6612,1.6612,1.6634,1.6632,1.6705,1.6715,1.665,1.665,1.6651,0,1.648,1.6496,1.6503,1.6513,1.6517,1.6533,1.6542,1.6537,1.6548,1.656,1.6574,1.6591,1.6605,1.6635,1.6639,1.6656,1.6652,1.6677,1.6655,1.6656,1.6654,1.6653,1.6655,1.6681,1.6682,1.6683,1.6683,0,1.6535,1.6533,1.6546,1.6559,1.657,1.6581,1.659,1.6599,1.6596,1.6608,1.6626,1.6637,1.6659,1.6677,1.6693,1.6698,1.6691,1.669,1.6696,1.6698,1.6698,1.6699,1.6625,1.6688,1.6688,1.6688,1.6687,1.6687,1.6575,1.659,1.6597,1.6612,1.6619,1.6628,1.6642,1.6644,1.6659,1.6676,1.6672,1.6693,1.6703,1.6724,1.6731,1.6748,1.674,1.6748,1.6751,1.6753,1.6756,1.6695,1.6751,1.6751,1.6751,1.6751,1.6751,0,1.663,1.6634,1.6648,1.6662,1.6674,1.6665,1.6675,1.6687,1.6705,1.6714,1.6728,1.6749,1.6767,1.6772,1.6789,1.6803,1.68,1.6807,1.6807,1.6808,1.6762,1.6755,1.681,1.681,1.681,1.6809,1.6809,1.6809,1.666,1.6685,1.6684,1.6712,1.6716,1.6736,1.6743,1.6752,1.6759,1.6783,1.6798,1.68,1.6808,1.6826,1.6843,1.6844,1.6851,1.6861,1.686,1.6817,1.6811,1.6806,1.6799,1.6862,1.6862,1.6905,1.6906,1.6906]},{"header":{"parameterUnit":"m.s-1","parameterCategory":1,"la1":30.2991,"la2":30.254,"lo1":-89.0895,"lo2":-89.0444,"dy":0.0017,"dx":0.0017,"nx":28,"ny":28,"refTime":"2026-01-09T03:00:00:Z","depth":0,"parameterNumber":3,"parameterNumberName":"V-component_of_WINDS"},"data":[0,0,0,0,0,0,0,0,0,0,0,0,0,0,0,0,0,0,0,0,0,0,0,0,0,0,0,0,0,0,0,0,0,0,0,0,0,0,0,0,0,0,0,0,0,0,0,0,0,0,0,0,0,0,0,0,0,0,3.9324,3.9325,0,3.9419,3.942,3.9421,3.9427,3.9426,3.9425,3.9424,3.9525,3.9528,3.9532,0,0,0,0,0,0,0,0,0,0,0,0,0,3.9151,3.9154,3.9324,3.9325,3.9326,3.9419,3.942,3.9421,3.9427,3.9426,3.9424,3.9423,3.9523,3.9528,3.9532,0,0,0,0,0,0,0,0,0,0,0,0,0,3.9234,3.9155,3.9324,3.934,3.9342,3.9418,3.942,3.9422,3.9427,3.9426,3.9424,3.9423,3.9522,3.9527,3.9533,3.96,0,0,3.955,3.9552,0,0,0,0,0,0,0,0,3.9229,3.924,3.9336,3.9339,3.9342,3.9409,3.9396,3.9482,3.9428,3.9395,3.9424,3.9422,3.9488,3.9496,3.9518,3.9604,3.9609,3.955,3.9554,3.9556,3.9557,0,0,0,0,0,0,0,3.9223,3.9236,3.9361,3.9338,3.9341,3.9344,3.9354,3.9412,3.945,3.9398,3.9399,3.941,3.9489,3.9512,3.952,3.961,3.955,3.9555,3.9558,3.9561,3.9759,3.9761,0,0,0,0,0,0,3.9214,3.9231,3.9358,3.9364,3.928,3.9348,3.936,3.9389,3.9449,3.9456,3.9411,3.941,3.9503,3.9513,3.9523,3.9608,3.9556,3.9561,3.9564,3.9757,3.976,3.9762,0,0,0,0,0,0,3.921,3.9225,3.9355,3.9298,3.9315,3.9353,3.9387,3.9392,3.9415,3.9459,3.9466,3.9428,3.9503,3.9516,3.9581,3.9611,3.9564,3.9569,3.9755,3.9758,3.9761,3.9775,0,0,0,0,0,0,3.9205,3.9224,3.9249,3.9299,3.9318,3.9409,3.9388,3.9395,3.9424,3.9424,3.9476,3.9483,3.9502,3.9573,3.9586,3.9618,3.9573,3.9752,3.9756,3.976,3.9772,3.9778,3.9783,0,0,0,0,0,3.9199,3.9249,3.925,3.9265,3.9349,3.9411,3.9422,3.9442,3.9427,3.9453,3.9481,3.9482,3.9605,3.9579,3.9595,3.9628,3.9751,3.9755,3.9759,3.977,3.9777,3.9783,0,0,0,0,0,0,3.9203,3.9256,3.9258,3.9325,3.9363,3.9412,3.9445,3.9449,3.9493,3.949,3.9514,3.9526,3.9591,3.9616,3.9586,3.9697,3.9676,3.9684,3.9679,3.9686,3.9692,3.9685,3.9578,0,0,0,0,0,3.9211,3.9256,3.93,3.9356,3.9375,3.9407,3.9434,3.9446,3.9487,3.9504,3.9537,3.9578,3.9626,3.9657,3.9704,3.9775,3.9788,3.9806,3.9812,3.9816,3.9823,3.9865,3.9874,3.9776,3.9776,3.9776,0,0,3.923,3.9264,3.9291,3.9357,3.9389,3.9436,3.942,3.947,3.9506,3.9512,3.9576,3.9601,3.9649,3.9718,3.975,3.9741,3.9853,3.9822,3.9825,3.983,3.987,3.988,3.9888,3.9779,3.9779,3.9778,0,0,3.9288,3.9318,3.9368,3.9399,3.9446,3.9467,3.9479,3.9528,3.9545,3.9609,3.9615,3.9658,3.974,3.9774,3.9802,3.9874,3.9877,3.9888,3.9918,3.9959,3.9966,3.9974,4.0001,4.0011,3.9895,3.9895,3.9895,0,3.9305,3.9375,3.9394,3.9444,3.9474,3.948,3.9532,3.9562,3.9622,3.9644,3.9632,3.9736,3.9768,3.9846,3.9864,3.9886,3.9902,3.9883,3.9964,3.9971,3.9978,4.0004,4.0015,3.9896,3.9896,3.9896,3.9896,0,3.9395,3.9444,3.9479,3.9536,3.957,3.9621,3.9648,3.968,3.969,3.9712,3.9779,3.9817,3.9873,3.9892,3.9901,3.9972,3.9965,3.9958,3.9938,3.9988,4.0014,4.0024,3.9898,3.9897,3.9897,3.9897,0,0,3.9459,3.9526,3.9539,3.9566,3.9618,3.9657,3.9709,3.9762,3.979,3.9832,3.9877,3.9947,3.9941,3.9973,3.9986,4.0021,4.0079,4.0011,4.0012,4.0024,4.0162,4.0168,4.0179,4.008,4.0082,4.0084,4.0158,0,3.9524,3.9616,3.9634,3.9714,3.976,3.9767,3.9813,3.9851,3.9874,3.9917,3.9943,3.9993,3.998,4.0,4.0035,4.0064,4.0107,4.0059,4.0125,4.0127,4.0115,4.0192,4.0199,4.0267,4.0168,4.017,4.0171,0,3.9613,3.9656,3.974,3.9788,3.9808,3.9849,3.99,3.9941,3.9985,3.9999,4.0035,4.0045,4.0101,4.0077,4.0156,4.0122,4.0151,4.0169,4.0172,4.0181,4.0153,4.0205,4.029,4.0301,4.0187,4.0185,4.0184,0,3.9653,3.9732,3.9793,3.9816,3.9873,3.9901,3.9927,3.9969,4.0,4.0045,4.0066,4.0117,4.0146,4.0186,4.0211,4.019,4.0289,4.0266,4.0304,4.0304,4.0326,4.0324,4.0418,4.0341,4.034,4.034,4.034,0,3.9725,3.9777,3.9813,3.985,3.9909,3.9931,3.9989,4.0014,4.0052,4.0096,4.0105,4.0147,4.0175,4.0221,4.0241,4.0304,4.0317,4.0331,4.0336,4.0332,4.033,4.0352,4.0349,4.0343,4.0342,4.0342,4.0341,0,3.9781,3.9806,3.9874,3.9922,3.9935,3.9977,4.0019,4.0057,4.008,4.0136,4.015,4.0187,4.0241,4.0269,4.0337,4.0351,4.0423,4.0424,4.0408,4.0411,4.0448,4.0445,4.0561,4.0578,4.0487,4.0488,4.0488,0,3.9826,3.9866,3.9918,3.9948,3.9974,4.0022,4.0054,4.0076,4.011,4.0164,4.0196,4.0251,4.0296,4.0384,4.0418,4.0471,4.0474,4.0511,4.0482,4.0477,4.0478,4.0476,4.0481,4.0517,4.0518,4.0518,4.0519,0,3.9904,3.9915,3.996,4.001,4.0048,4.0089,4.0129,4.0153,4.0183,4.022,4.0276,4.0311,4.0381,4.0437,4.0492,4.052,4.0526,4.0527,4.054,4.0536,4.0526,4.0534,4.0424,4.0525,4.0525,4.0524,4.0524,4.0523,3.9957,3.9994,4.0037,4.0087,4.012,4.0158,4.0196,4.0224,4.027,4.0328,4.0339,4.0399,4.0444,4.0519,4.0548,4.0597,4.0589,4.0606,4.0611,4.0615,4.0618,4.0517,4.0607,4.0607,4.0607,4.0606,4.0606,0,4.0037,4.0065,4.0112,4.0168,4.0208,4.0208,4.0253,4.0287,4.0339,4.038,4.0424,4.049,4.0544,4.0581,4.0637,4.0669,4.0673,4.0683,4.0682,4.0689,4.0621,4.0606,4.0679,4.0679,4.0679,4.0679,4.0679,4.0679,4.0084,4.0147,4.0163,4.0242,4.027,4.0328,4.0354,4.039,4.0423,4.0495,4.0539,4.0563,4.0604,4.0662,4.0713,4.0723,4.0744,4.0754,4.0764,4.0701,4.0693,4.0686,4.0672,4.0758,4.0758,4.0829,4.0829,4.083]}]]